Location: Canazei
(46.4667°N, 11.7667°E)
Time: 07:32:38
(UTC+00:00)

Gbstr 26 Del rocket - Pass Details

Date: 21 April 2021
Orbit: 493 x 1263 km, 51.8° (Epoch: 05 May)

Event Time Altitude Azimuth Distance (km) Brightness Sun altitude
Rises 03:29:18 0° 286° (WNW) 3,491 6.5 -8.1°
Reaches altitude 10° 03:32:10 10° 292° (WNW) 2,415 5.7 -7.7°
Maximum altitude 03:37:31 48° 6° (N) 914 4.2 -6.9°
Drops below altitude 10° 03:41:52 10° 82° (E) 1,968 7.2 -6.2°
Sets 03:44:01 0° 88° (E) 2,784 7.9 -5.8°
